Location: Little Baddow
(51.7333°N, 0.5667°E)
Time: 09:13:55
(UTC+00:00)

Lacrosse 5 rocket - Pass Details

Date: 08 November 2025
Orbit: 406 x 492 km, 57.0° (Epoch: 12 December)

Event Time Altitude Azimuth Distance (km) Brightness Sun altitude
Exits shadow 03:46:14 14° 59° (ENE) 1,331 4.0 -30.7°
Drops below altitude 10° 03:46:43 10° 60° (ENE) 1,529 4.4 -30.6°
Sets 03:48:47 0° 61° (ENE) 2,383 5.6 -30.3°
